Location: ????????
(55.6189°N, 38.3031°E)
Time: 09:19:00
(UTC+00:00)

SL-16 R/B - Pass Details

Date: 25 February 2020
Orbit: 843 x 847 km, 71.0° (Epoch: 07 April)

Event Time Altitude Azimuth Distance (km) Brightness Sun altitude
Exits shadow 02:54:05 18° 288° (WNW) 1,956 3.5 -14.2°
Maximum altitude 02:56:57 27° 330° (NNW) 1,585 3.4 -13.7°
Drops below altitude 10° 03:01:44 10° 27° (NNE) 2,477 5.0 -13.1°
Sets 03:04:35 0° 40° (NE) 3,414 6.0 -12.7°
